When you browse on this site, cookies collect data to enhance your experience and personalize the content and advertising you see.
Visit our Privacy Policy to learn more. By continuing to use the site, you agree to this use of cookies and data.
  • în România
  • Lista ţărilor
  • Pe 7 zile
  • Temperatura apei
  • Hartă satelitară
  • Meteo pe hartă
  • Widget-uri
  • user-avatar
    Intrare

    Meteo pe oră la Hajfong

    Astăzi, 17 Iunie, Luni

    Timp Temperatura Precipitaţii Vânt Presiune Umiditate
    00:00 +31°C° 0.2 mm 3 m/s 750 mmHg 84%
    01:00 +32°C° 0 mm 4 m/s 750 mmHg 85%
    02:00 +32°C° 0.6 mm 4 m/s 750 mmHg 84%
    03:00 +32°C° 0.6 mm 4 m/s 750 mmHg 83%
    04:00 +32°C° 0.6 mm 4 m/s 750 mmHg 83%
    05:00 +32°C° 0.6 mm 4 m/s 750 mmHg 83%
    06:00 +32°C° 0.6 mm 4 m/s 751 mmHg 83%
    07:00 +32°C° 0 mm 4 m/s 751 mmHg 84%
    08:00 +33°C° 1.1 mm 4 m/s 751 mmHg 80%
    09:00 +34°C° 1.1 mm 4 m/s 752 mmHg 76%
    10:00 +35°C° 1.1 mm 4 m/s 752 mmHg 71%
    11:00 +35°C° 0.4 mm 4 m/s 751 mmHg 70%
    12:00 +35°C° 0.4 mm 5 m/s 751 mmHg 68%
    13:00 +36°C° 0.4 mm 5 m/s 750 mmHg 67%
    14:00 +35°C° 0 mm 5 m/s 750 mmHg 67%
    15:00 +35°C° 0 mm 5 m/s 749 mmHg 68%
    16:00 +35°C° 0 mm 5 m/s 749 mmHg 69%
    17:00 +34°C° 0 mm 5 m/s 749 mmHg 73%
    18:00 +33°C° 0 mm 4 m/s 750 mmHg 77%
    19:00 +32°C° 0 mm 4 m/s 750 mmHg 81%
    20:00 +32°C° 0 mm 4 m/s 751 mmHg 83%
    21:00 +32°C° 0 mm 4 m/s 751 mmHg 84%
    22:00 +32°C° 0 mm 4 m/s 752 mmHg 85%
    23:00 +32°C° 0.7 mm 4 m/s 752 mmHg 85%

    Mâine, 18 Iunie, Marţi

    Timp Temperatura Precipitaţii Vânt Presiune Umiditate
    00:00 +30°C° 0.7 mm 3 m/s 752 mmHg 86%
    01:00 +30°C° 0.7 mm 3 m/s 751 mmHg 86%
    02:00 +30°C° 0.1 mm 3 m/s 751 mmHg 86%
    03:00 +30°C° 0.1 mm 3 m/s 751 mmHg 86%
    04:00 +30°C° 0.1 mm 4 m/s 751 mmHg 85%
    05:00 +32°C° 0.3 mm 4 m/s 751 mmHg 83%
    06:00 +32°C° 0.3 mm 4 m/s 751 mmHg 81%
    07:00 +33°C° 0.3 mm 4 m/s 751 mmHg 79%
    08:00 +34°C° 0.5 mm 4 m/s 752 mmHg 75%
    09:00 +35°C° 0.5 mm 5 m/s 752 mmHg 70%
    10:00 +35°C° 0.5 mm 5 m/s 752 mmHg 66%
    11:00 +36°C° 0 mm 5 m/s 751 mmHg 65%
    12:00 +36°C° 0 mm 5 m/s 751 mmHg 64%
    13:00 +36°C° 0 mm 5 m/s 750 mmHg 63%
    14:00 +36°C° 0 mm 5 m/s 750 mmHg 64%
    15:00 +36°C° 0 mm 5 m/s 750 mmHg 65%
    16:00 +35°C° 0 mm 5 m/s 749 mmHg 67%
    17:00 +34°C° 0 mm 4 m/s 750 mmHg 71%
    18:00 +33°C° 0 mm 4 m/s 750 mmHg 75%
    19:00 +32°C° 0 mm 4 m/s 751 mmHg 79%
    20:00 +32°C° 0.1 mm 4 m/s 751 mmHg 81%
    21:00 +32°C° 0.1 mm 4 m/s 751 mmHg 82%
    22:00 +32°C° 0.1 mm 4 m/s 752 mmHg 83%
    23:00 +32°C° 0.3 mm 4 m/s 752 mmHg 84%

    Poimâine, 19 Iunie, Miercuri

    Timp Temperatura Precipitaţii Vânt Presiune Umiditate
    00:00 +32°C° 0.3 mm 4 m/s 751 mmHg 85%
    01:00 +30°C° 0.3 mm 4 m/s 751 mmHg 86%
    02:00 +30°C° 0.4 mm 3 m/s 751 mmHg 86%
    03:00 +30°C° 0.4 mm 3 m/s 751 mmHg 86%
    04:00 +30°C° 0.4 mm 3 m/s 751 mmHg 86%
    05:00 +32°C° 0.4 mm 4 m/s 751 mmHg 83%
    06:00 +32°C° 0.4 mm 4 m/s 751 mmHg 81%
    07:00 +33°C° 0.4 mm 4 m/s 752 mmHg 79%
    08:00 +34°C° 0.1 mm 4 m/s 752 mmHg 74%
    09:00 +35°C° 0.1 mm 4 m/s 752 mmHg 70%
    10:00 +36°C° 0.1 mm 4 m/s 752 mmHg 65%
    11:00 +36°C° 0 mm 4 m/s 751 mmHg 62%
    12:00 +37°C° 0 mm 5 m/s 751 mmHg 60%
    13:00 +37°C° 0 mm 5 m/s 750 mmHg 57%
    14:00 +36°C° 0 mm 5 m/s 750 mmHg 60%
    15:00 +36°C° 0 mm 5 m/s 749 mmHg 62%
    16:00 +35°C° 0 mm 5 m/s 748 mmHg 64%
    17:00 +34°C° 0 mm 5 m/s 749 mmHg 69%
    18:00 +33°C° 0 mm 5 m/s 749 mmHg 74%
    19:00 +32°C° 0 mm 4 m/s 750 mmHg 79%
    20:00 +32°C° 0 mm 4 m/s 750 mmHg 81%
    21:00 +32°C° 0 mm 4 m/s 751 mmHg 82%
    22:00 +31°C° 0 mm 3 m/s 751 mmHg 83%
    23:00 +32°C° 0.2 mm 4 m/s 751 mmHg 84%

    20 Iunie, Joi

    Timp Temperatura Precipitaţii Vânt Presiune Umiditate
    00:00 +32°C° 0.2 mm 4 m/s 751 mmHg 84%
    01:00 +30°C° 0.2 mm 4 m/s 751 mmHg 85%
    02:00 +32°C° 0.4 mm 4 m/s 751 mmHg 84%
    03:00 +32°C° 0.4 mm 4 m/s 750 mmHg 84%
    04:00 +32°C° 0.4 mm 4 m/s 750 mmHg 83%
    05:00 +32°C° 0.4 mm 5 m/s 751 mmHg 82%
    06:00 +32°C° 0.4 mm 5 m/s 751 mmHg 80%
    07:00 +33°C° 0.4 mm 5 m/s 751 mmHg 78%
    08:00 +34°C° 0 mm 5 m/s 751 mmHg 73%
    09:00 +35°C° 0 mm 5 m/s 751 mmHg 67%
    10:00 +37°C° 0 mm 5 m/s 752 mmHg 62%
    11:00 +37°C° 0 mm 5 m/s 751 mmHg 61%
    12:00 +37°C° 0 mm 5 m/s 750 mmHg 59%
    13:00 +38°C° 0 mm 6 m/s 750 mmHg 58%
    14:00 +37°C° 0 mm 5 m/s 749 mmHg 60%
    15:00 +36°C° 0 mm 5 m/s 749 mmHg 63%
    16:00 +35°C° 0 mm 5 m/s 748 mmHg 65%
    17:00 +34°C° 0 mm 5 m/s 748 mmHg 70%
    18:00 +33°C° 0 mm 5 m/s 749 mmHg 75%
    19:00 +32°C° 0 mm 4 m/s 749 mmHg 79%
    20:00 +32°C° 0 mm 4 m/s 749 mmHg 80%
    21:00 +32°C° 0 mm 4 m/s 750 mmHg 81%
    22:00 +32°C° 0 mm 4 m/s 751 mmHg 82%
    23:00 +32°C° 0 mm 4 m/s 750 mmHg 83%

    21 Iunie, Vineri

    Timp Temperatura Precipitaţii Vânt Presiune Umiditate
    00:00 +32°C° 0 mm 4 m/s 750 mmHg 84%
    01:00 +32°C° 0 mm 5 m/s 750 mmHg 84%
    02:00 +32°C° 0 mm 5 m/s 750 mmHg 84%
    03:00 +32°C° 0 mm 5 m/s 750 mmHg 85%
    04:00 +32°C° 0 mm 5 m/s 749 mmHg 85%
    05:00 +32°C° 0 mm 5 m/s 750 mmHg 83%
    06:00 +33°C° 0 mm 5 m/s 750 mmHg 80%
    07:00 +33°C° 0 mm 5 m/s 750 mmHg 78%
    08:00 +35°C° 0 mm 4 m/s 750 mmHg 73%
    09:00 +36°C° 0 mm 4 m/s 750 mmHg 67%
    10:00 +37°C° 0 mm 4 m/s 750 mmHg 62%
    11:00 +37°C° 0 mm 4 m/s 750 mmHg 61%
    12:00 +38°C° 0 mm 4 m/s 749 mmHg 59%
    13:00 +39°C° 0 mm 5 m/s 749 mmHg 58%
    14:00 +37°C° 0 mm 5 m/s 748 mmHg 61%
    15:00 +37°C° 0 mm 5 m/s 748 mmHg 63%
    16:00 +36°C° 0 mm 5 m/s 747 mmHg 66%
    17:00 +35°C° 0 mm 5 m/s 747 mmHg 71%
    18:00 +34°C° 0 mm 5 m/s 748 mmHg 75%
    19:00 +33°C° 0 mm 4 m/s 748 mmHg 80%
    20:00 +33°C° 0 mm 4 m/s 748 mmHg 81%
    21:00 +33°C° 0 mm 4 m/s 749 mmHg 82%
    22:00 +32°C° 0 mm 4 m/s 750 mmHg 83%
    23:00 +33°C° 0 mm 4 m/s 749 mmHg 83%

    22 Iunie, Sâmbătă

    Timp Temperatura Precipitaţii Vânt Presiune Umiditate
    00:00 +33°C° 0 mm 5 m/s 749 mmHg 84%
    01:00 +33°C° 0 mm 5 m/s 749 mmHg 84%
    02:00 +32°C° 0 mm 5 m/s 749 mmHg 84%
    03:00 +32°C° 0 mm 5 m/s 749 mmHg 84%
    04:00 +32°C° 0 mm 5 m/s 748 mmHg 84%
    05:00 +33°C° 0 mm 5 m/s 748 mmHg 82%
    06:00 +33°C° 0 mm 5 m/s 749 mmHg 81%
    07:00 +33°C° 0 mm 5 m/s 749 mmHg 80%
    08:00 +35°C° 0 mm 4 m/s 749 mmHg 74%
    09:00 +36°C° 0 mm 4 m/s 749 mmHg 69%
    10:00 +37°C° 0 mm 4 m/s 749 mmHg 64%
    11:00 +37°C° 0 mm 4 m/s 749 mmHg 62%
    12:00 +38°C° 0 mm 4 m/s 748 mmHg 60%
    13:00 +38°C° 0 mm 4 m/s 748 mmHg 57%
    14:00 +39°C° 0 mm 5 m/s 748 mmHg 60%
    15:00 +37°C° 0 mm 5 m/s 747 mmHg 62%
    16:00 +36°C° 0 mm 5 m/s 747 mmHg 65%
    17:00 +35°C° 0 mm 5 m/s 747 mmHg 70%
    18:00 +34°C° 0 mm 5 m/s 747 mmHg 74%
    19:00 +33°C° 0 mm 5 m/s 748 mmHg 79%
    20:00 +33°C° 0 mm 4 m/s 748 mmHg 80%
    21:00 +33°C° 0 mm 4 m/s 749 mmHg 82%
    22:00 +33°C° 0 mm 3 m/s 750 mmHg 83%
    23:00 +31°C° 0.3 mm 3 m/s 749 mmHg 84%
    Arată mai mult